Location: Unspecified
(0.0000°N, 0.0000°E)
Time: 07:10:33

Envisat - Pass Details

Date: 20 February 2018
Orbit: 764 x 766 km, 98.2° (Epoch: 20 March)

Event Time Altitude Azimuth Distance (km) Brightness Sun altitude
Rises 19:17:32 0° 149° (SSE) 3,231 6.0 -15.7°
Reaches altitude 10° 19:20:06 10° 138° (SE) 2,302 5.2 -16.3°
Maximum altitude 19:24:29 30° 78° (ENE) 1,347 3.7 -17.4°
Enters shadow 19:24:46 30° 72° (ENE) 1,352 3.7 -17.4°
Exits shadow 19:27:28 17° 28° (NNE) 1,848 4.6 -18.1°
Drops below altitude 10° 19:28:52 10° 18° (NNE) 2,293 5.2 -18.5°
Sets 19:31:24 0° 7° (N) 3,216 6.0 -19.1°
